Location: The Rolnick Observatory
(41.1711°N, 73.3275°W)
Time: 10:08:50
(UTC-04:00)

N. Korean satellite - Pass Details

Date: 19 February 2019
Orbit: 455 x 511 km, 97.2° (Epoch: 18 March)

Event Time Altitude Azimuth Distance (km) Brightness Sun altitude
Rises 18:26:40 0° 213° (SSW) 2,593 10.9 -10.9°
Reaches altitude 10° 18:30:01 10° 247° (WSW) 1,706 10.6 -11.6°
Maximum altitude 18:31:23 12° 269° (W) 1,597 10.7 -11.8°
Drops below altitude 10° 18:32:46 10° 291° (WNW) 1,701 10.4 -12.1°
Sets 18:36:06 0° 325° (NW) 2,577 10.7 -12.7°
